Year,Month,Day,Hour,Minute,Value (Times are PST for temperature in C)
2014,08,06,00,00,18.70
2014,08,06,00,01,18.70
2014,08,06,00,02,18.70
2014,08,06,00,03,18.60
2014,08,06,00,04,18.50
2014,08,06,00,05,18.50
2014,08,06,00,06,18.40
2014,08,06,00,07,18.40
2014,08,06,00,08,18.30
2014,08,06,00,09,18.30
2014,08,06,00,10,18.20
2014,08,06,00,11,18.20
2014,08,06,00,12,18.20
2014,08,06,00,13,18.10
2014,08,06,00,14,18.10
2014,08,06,00,15,18.10
2014,08,06,00,16,18.00
2014,08,06,00,17,18.00
2014,08,06,00,18,17.90
2014,08,06,00,19,17.90
2014,08,06,00,20,17.90
2014,08,06,00,21,17.90
2014,08,06,00,22,17.80
2014,08,06,00,23,17.80
2014,08,06,00,24,17.80
2014,08,06,00,25,17.70
2014,08,06,00,26,17.70
2014,08,06,00,27,17.60
2014,08,06,00,28,17.60
2014,08,06,00,29,17.50
2014,08,06,00,30,17.50
2014,08,06,00,31,17.40
2014,08,06,00,32,17.40
2014,08,06,00,33,17.40
2014,08,06,00,34,17.40
2014,08,06,00,35,17.40
2014,08,06,00,36,17.50
2014,08,06,00,37,17.50
2014,08,06,00,38,17.50
2014,08,06,00,39,17.60
2014,08,06,00,40,17.60
2014,08,06,00,41,17.60
2014,08,06,00,42,17.60
2014,08,06,00,43,17.60
2014,08,06,00,44,17.60
2014,08,06,00,45,17.60
2014,08,06,00,46,17.60
2014,08,06,00,47,17.60
2014,08,06,00,48,17.60
2014,08,06,00,49,17.60
2014,08,06,00,50,17.60
2014,08,06,00,51,17.60
2014,08,06,00,52,17.60
2014,08,06,00,53,17.60
2014,08,06,00,54,17.60
2014,08,06,00,55,17.60
2014,08,06,00,56,17.60
2014,08,06,00,57,17.60
2014,08,06,00,58,17.60
2014,08,06,00,59,17.60
2014,08,06,01,00,17.60
2014,08,06,01,01,17.60
2014,08,06,01,02,17.60
2014,08,06,01,03,17.60
2014,08,06,01,04,17.60
2014,08,06,01,05,17.60
2014,08,06,01,06,17.60
2014,08,06,01,07,17.60
2014,08,06,01,08,17.60
2014,08,06,01,09,17.60
2014,08,06,01,10,17.50
2014,08,06,01,11,17.60
2014,08,06,01,12,17.60
2014,08,06,01,13,17.60
2014,08,06,01,14,17.60
2014,08,06,01,15,17.60
2014,08,06,01,16,17.60
2014,08,06,01,17,17.60
2014,08,06,01,18,17.60
2014,08,06,01,19,17.60
2014,08,06,01,20,17.70
2014,08,06,01,21,17.70
2014,08,06,01,22,17.70
2014,08,06,01,23,17.70
2014,08,06,01,24,17.70
2014,08,06,01,25,17.70
2014,08,06,01,26,17.80
2014,08,06,01,27,17.80
2014,08,06,01,28,17.80
2014,08,06,01,29,17.80
2014,08,06,01,30,17.80
2014,08,06,01,31,17.90
2014,08,06,01,32,17.90
2014,08,06,01,33,17.90
2014,08,06,01,34,17.90
2014,08,06,01,35,17.90
2014,08,06,01,36,17.90
2014,08,06,01,37,17.90
2014,08,06,01,38,17.90
2014,08,06,01,39,17.90
2014,08,06,01,40,17.90
2014,08,06,01,41,17.90
2014,08,06,01,42,17.90
2014,08,06,01,43,17.90
2014,08,06,01,44,17.90
2014,08,06,01,45,17.90
2014,08,06,01,46,17.90
2014,08,06,01,47,18.00
2014,08,06,01,48,18.00
2014,08,06,01,49,18.00
2014,08,06,01,50,18.00
2014,08,06,01,51,18.00
2014,08,06,01,52,17.90
2014,08,06,01,53,18.00
2014,08,06,01,54,17.90
2014,08,06,01,55,18.00
2014,08,06,01,56,18.00
2014,08,06,01,57,18.00
2014,08,06,01,58,18.00
2014,08,06,01,59,18.00
2014,08,06,02,00,18.00
2014,08,06,02,01,18.00
2014,08,06,02,02,18.00
2014,08,06,02,03,18.00
2014,08,06,02,04,18.00
2014,08,06,02,05,18.00
2014,08,06,02,06,18.10
2014,08,06,02,07,18.00
2014,08,06,02,08,18.00
2014,08,06,02,09,18.00
2014,08,06,02,10,18.00
2014,08,06,02,11,18.00
2014,08,06,02,12,18.00
2014,08,06,02,13,18.00
2014,08,06,02,14,18.00
2014,08,06,02,15,18.00
2014,08,06,02,16,18.00
2014,08,06,02,17,18.00
2014,08,06,02,18,18.00
2014,08,06,02,19,18.00
2014,08,06,02,20,18.00
2014,08,06,02,21,18.00
2014,08,06,02,22,18.00
2014,08,06,02,23,18.00
2014,08,06,02,24,18.00
2014,08,06,02,25,18.00
2014,08,06,02,26,18.00
2014,08,06,02,27,18.10
2014,08,06,02,28,18.10
2014,08,06,02,29,18.10
2014,08,06,02,30,18.10
2014,08,06,02,31,18.10
2014,08,06,02,32,18.10
2014,08,06,02,33,18.10
2014,08,06,02,34,18.10
2014,08,06,02,35,18.10
2014,08,06,02,36,18.10
2014,08,06,02,37,18.10
2014,08,06,02,38,18.10
2014,08,06,02,39,18.10
2014,08,06,02,40,18.10
2014,08,06,02,41,18.10
2014,08,06,02,42,18.10
2014,08,06,02,43,18.10
2014,08,06,02,44,18.10
2014,08,06,02,45,18.10
2014,08,06,02,46,18.00
2014,08,06,02,47,18.00
2014,08,06,02,48,17.90
2014,08,06,02,49,17.90
2014,08,06,02,50,17.90
2014,08,06,02,51,17.90
2014,08,06,02,52,17.90
2014,08,06,02,53,17.90
2014,08,06,02,54,17.90
2014,08,06,02,55,17.90
2014,08,06,02,56,17.90
2014,08,06,02,57,17.90
2014,08,06,02,58,17.90
2014,08,06,02,59,17.90
2014,08,06,03,00,17.80
2014,08,06,03,01,17.80
2014,08,06,03,02,17.80
2014,08,06,03,03,17.80
2014,08,06,03,04,17.80
2014,08,06,03,05,17.80
2014,08,06,03,06,17.80
2014,08,06,03,07,17.80
2014,08,06,03,08,17.80
2014,08,06,03,09,17.80
2014,08,06,03,10,17.70
2014,08,06,03,11,17.70
2014,08,06,03,12,17.70
2014,08,06,03,13,17.70
2014,08,06,03,14,17.70
2014,08,06,03,15,17.70
2014,08,06,03,16,17.70
2014,08,06,03,17,17.60
2014,08,06,03,18,17.60
2014,08,06,03,19,17.60
2014,08,06,03,20,17.60
2014,08,06,03,21,17.60
2014,08,06,03,22,17.50
2014,08,06,03,23,17.50
2014,08,06,03,24,17.50
2014,08,06,03,25,17.50
2014,08,06,03,26,17.50
2014,08,06,03,27,17.40
2014,08,06,03,28,17.40
2014,08,06,03,29,17.40
2014,08,06,03,30,17.40
2014,08,06,03,31,17.40
2014,08,06,03,32,17.40
2014,08,06,03,33,17.40
2014,08,06,03,34,17.40
2014,08,06,03,35,17.40
2014,08,06,03,36,17.40
2014,08,06,03,37,17.40
2014,08,06,03,38,17.40
2014,08,06,03,39,17.40
2014,08,06,03,40,17.40
2014,08,06,03,41,17.40
2014,08,06,03,42,17.40
2014,08,06,03,43,17.40
2014,08,06,03,44,17.40
2014,08,06,03,45,17.40
2014,08,06,03,46,17.30
2014,08,06,03,47,17.30
2014,08,06,03,48,17.30
2014,08,06,03,49,17.30
2014,08,06,03,50,17.30
2014,08,06,03,51,17.20
2014,08,06,03,52,17.20
2014,08,06,03,53,17.20
2014,08,06,03,54,17.20
2014,08,06,03,55,17.20
2014,08,06,03,56,17.20
2014,08,06,03,57,17.10
2014,08,06,03,58,17.10
2014,08,06,03,59,17.10
2014,08,06,04,00,17.10
2014,08,06,04,01,17.10
2014,08,06,04,02,17.00
2014,08,06,04,03,17.00
2014,08,06,04,04,16.90
2014,08,06,04,05,16.90
2014,08,06,04,06,16.90
2014,08,06,04,07,16.80
2014,08,06,04,08,16.80
2014,08,06,04,09,16.80
2014,08,06,04,10,16.80
2014,08,06,04,11,16.80
2014,08,06,04,12,16.80
2014,08,06,04,13,16.80
2014,08,06,04,14,16.80
2014,08,06,04,15,16.70
2014,08,06,04,16,16.70
2014,08,06,04,17,16.70
2014,08,06,04,18,16.70
2014,08,06,04,19,16.70
2014,08,06,04,20,16.70
2014,08,06,04,21,16.70
2014,08,06,04,22,16.70
2014,08,06,04,23,16.70
2014,08,06,04,24,16.70
2014,08,06,04,25,16.70
2014,08,06,04,26,16.70
2014,08,06,04,27,16.60
2014,08,06,04,28,16.60
2014,08,06,04,29,16.60
2014,08,06,04,30,16.60
2014,08,06,04,31,16.60
2014,08,06,04,32,16.60
2014,08,06,04,33,16.60
2014,08,06,04,34,16.60
2014,08,06,04,35,16.60
2014,08,06,04,36,16.50
2014,08,06,04,37,16.50
2014,08,06,04,38,16.50
2014,08,06,04,39,16.50
2014,08,06,04,40,16.50
2014,08,06,04,41,16.50
2014,08,06,04,42,16.40
2014,08,06,04,43,16.40
2014,08,06,04,44,16.40
2014,08,06,04,45,16.40
2014,08,06,04,46,16.40
2014,08,06,04,47,16.40
2014,08,06,04,48,16.40
2014,08,06,04,49,16.40
2014,08,06,04,50,16.40
2014,08,06,04,51,16.40
2014,08,06,04,52,16.40
2014,08,06,04,53,16.40
2014,08,06,04,54,16.40
2014,08,06,04,55,16.40
2014,08,06,04,56,16.40
2014,08,06,04,57,16.40
2014,08,06,04,58,16.40
2014,08,06,04,59,16.40
2014,08,06,05,00,16.40
2014,08,06,05,01,16.40
2014,08,06,05,02,16.40
2014,08,06,05,03,16.40
2014,08,06,05,04,16.40
2014,08,06,05,05,16.40
2014,08,06,05,06,16.40
2014,08,06,05,07,16.40
2014,08,06,05,08,16.40
2014,08,06,05,09,16.40
2014,08,06,05,10,16.40
2014,08,06,05,11,16.40
2014,08,06,05,12,16.40
2014,08,06,05,13,16.40
2014,08,06,05,14,16.40
2014,08,06,05,15,16.40
2014,08,06,05,16,16.40
2014,08,06,05,17,16.40
2014,08,06,05,18,16.40
2014,08,06,05,19,16.40
2014,08,06,05,20,16.40
2014,08,06,05,21,16.40
2014,08,06,05,22,16.40
2014,08,06,05,23,16.40
2014,08,06,05,24,16.30
2014,08,06,05,25,16.30
2014,08,06,05,26,16.30
2014,08,06,05,27,16.30
2014,08,06,05,28,16.30
2014,08,06,05,29,16.30
2014,08,06,05,30,16.30
2014,08,06,05,31,16.20
2014,08,06,05,32,16.20
2014,08,06,05,33,16.20
2014,08,06,05,34,16.20
2014,08,06,05,35,16.20
2014,08,06,05,36,16.10
2014,08,06,05,37,16.10
2014,08,06,05,38,16.10
2014,08,06,05,39,16.10
2014,08,06,05,40,16.10
2014,08,06,05,41,16.10
2014,08,06,05,42,16.10
2014,08,06,05,43,16.00
2014,08,06,05,44,16.00
2014,08,06,05,45,16.00
2014,08,06,05,46,16.00
2014,08,06,05,47,16.00
2014,08,06,05,48,16.00
2014,08,06,05,49,15.90
2014,08,06,05,50,15.90
2014,08,06,05,51,15.90
2014,08,06,05,52,15.90
2014,08,06,05,53,15.90
2014,08,06,05,54,15.90
2014,08,06,05,55,15.90
2014,08,06,05,56,15.90
2014,08,06,05,57,15.90
2014,08,06,05,58,15.90
2014,08,06,05,59,15.90
2014,08,06,06,00,15.90
2014,08,06,06,01,15.90
2014,08,06,06,02,15.90
2014,08,06,06,03,15.90
2014,08,06,06,04,15.90
2014,08,06,06,05,15.90
2014,08,06,06,06,15.90
2014,08,06,06,07,15.90
2014,08,06,06,08,15.90
2014,08,06,06,09,15.90
2014,08,06,06,10,15.90
2014,08,06,06,11,15.90
2014,08,06,06,12,15.90
2014,08,06,06,13,15.90
2014,08,06,06,14,15.90
2014,08,06,06,15,15.90
2014,08,06,06,16,15.90
2014,08,06,06,17,15.90
2014,08,06,06,18,15.90
2014,08,06,06,19,15.90
2014,08,06,06,20,16.00
2014,08,06,06,21,16.00
2014,08,06,06,22,16.00
2014,08,06,06,23,16.00
2014,08,06,06,24,16.00
2014,08,06,06,25,16.00
2014,08,06,06,26,16.00
2014,08,06,06,27,16.00
2014,08,06,06,28,16.00
2014,08,06,06,29,16.00
2014,08,06,06,30,16.00
2014,08,06,06,31,16.00
2014,08,06,06,32,16.00
2014,08,06,06,33,16.00
2014,08,06,06,34,16.00
2014,08,06,06,35,16.00
2014,08,06,06,36,16.10
2014,08,06,06,37,16.10
2014,08,06,06,38,16.10
2014,08,06,06,39,16.10
2014,08,06,06,40,16.10
2014,08,06,06,41,16.00
2014,08,06,06,42,16.00
2014,08,06,06,43,16.00
2014,08,06,06,44,16.00
2014,08,06,06,45,16.00
2014,08,06,06,46,16.00
2014,08,06,06,47,16.00
2014,08,06,06,48,16.00
2014,08,06,06,49,16.00
2014,08,06,06,50,16.00
2014,08,06,06,51,16.00
2014,08,06,06,52,16.00
2014,08,06,06,53,16.00
2014,08,06,06,54,16.00
2014,08,06,06,55,16.00
2014,08,06,06,56,16.00
2014,08,06,06,57,16.00
2014,08,06,06,58,16.00
2014,08,06,06,59,16.00
2014,08,06,07,00,16.10
2014,08,06,07,01,16.10
2014,08,06,07,02,16.10
2014,08,06,07,03,16.10
2014,08,06,07,04,16.10
2014,08,06,07,05,16.10
2014,08,06,07,06,16.10
2014,08,06,07,07,16.10
2014,08,06,07,08,16.10
2014,08,06,07,09,16.20
2014,08,06,07,10,16.20
2014,08,06,07,11,16.20
2014,08,06,07,12,16.20
2014,08,06,07,13,16.20
2014,08,06,07,14,16.20
2014,08,06,07,15,16.20
2014,08,06,07,16,16.20
2014,08,06,07,17,16.20
2014,08,06,07,18,16.20
2014,08,06,07,19,16.20
2014,08,06,07,20,16.20
2014,08,06,07,21,16.20
2014,08,06,07,22,16.30
2014,08,06,07,23,16.30
2014,08,06,07,24,16.30
2014,08,06,07,25,16.30
2014,08,06,07,26,16.30
2014,08,06,07,27,16.30
2014,08,06,07,28,16.30
2014,08,06,07,29,16.30
2014,08,06,07,30,16.30
2014,08,06,07,31,16.30
2014,08,06,07,32,16.30
2014,08,06,07,33,16.30
2014,08,06,07,34,16.30
2014,08,06,07,35,16.30
2014,08,06,07,36,16.30
2014,08,06,07,37,16.30
2014,08,06,07,38,16.30
2014,08,06,07,39,16.30
2014,08,06,07,40,16.30
2014,08,06,07,41,16.40
2014,08,06,07,42,16.40
2014,08,06,07,43,16.40
2014,08,06,07,44,16.40
2014,08,06,07,45,16.40
2014,08,06,07,46,16.40
2014,08,06,07,47,16.40
2014,08,06,07,48,16.40
2014,08,06,07,49,16.40
2014,08,06,07,50,16.40
2014,08,06,07,51,16.40
2014,08,06,07,52,16.40
2014,08,06,07,53,16.40
2014,08,06,07,54,16.40
2014,08,06,07,55,16.40
2014,08,06,07,56,16.40
2014,08,06,07,57,16.50
2014,08,06,07,58,16.50
2014,08,06,07,59,16.50
2014,08,06,08,00,16.50
2014,08,06,08,01,16.50
2014,08,06,08,02,16.50
2014,08,06,08,03,16.50
2014,08,06,08,04,16.40
2014,08,06,08,05,16.40
2014,08,06,08,06,16.40
2014,08,06,08,07,16.40
2014,08,06,08,08,16.40
2014,08,06,08,09,16.40
2014,08,06,08,10,16.40
2014,08,06,08,11,16.40
2014,08,06,08,12,16.40
2014,08,06,08,13,16.40
2014,08,06,08,14,16.40
2014,08,06,08,15,16.40
2014,08,06,08,16,16.40
2014,08,06,08,17,16.30
2014,08,06,08,18,16.30
2014,08,06,08,19,16.30
2014,08,06,08,20,16.30
2014,08,06,08,21,16.30
2014,08,06,08,22,16.40
2014,08,06,08,23,16.40
2014,08,06,08,24,16.40
2014,08,06,08,25,16.40
2014,08,06,08,26,16.40
2014,08,06,08,27,16.40
2014,08,06,08,28,16.40
2014,08,06,08,29,16.40
2014,08,06,08,30,16.40
2014,08,06,08,31,16.50
2014,08,06,08,32,16.50
2014,08,06,08,33,16.50
2014,08,06,08,34,16.60
2014,08,06,08,35,16.60
2014,08,06,08,36,16.60
2014,08,06,08,37,16.60
2014,08,06,08,38,16.60
2014,08,06,08,39,16.60
2014,08,06,08,40,16.70
2014,08,06,08,41,16.70
2014,08,06,08,42,16.70
2014,08,06,08,43,16.60
2014,08,06,08,44,16.60
2014,08,06,08,45,16.60
2014,08,06,08,46,16.60
2014,08,06,08,47,16.60
2014,08,06,08,48,16.60
2014,08,06,08,49,16.60
2014,08,06,08,50,16.60
2014,08,06,08,51,16.60
2014,08,06,08,52,16.60
2014,08,06,08,53,16.70
2014,08,06,08,54,16.70
2014,08,06,08,55,16.70
2014,08,06,08,56,16.70
2014,08,06,08,57,16.80
2014,08,06,08,58,16.80
2014,08,06,08,59,16.80
2014,08,06,09,00,16.80
2014,08,06,09,01,16.80
2014,08,06,09,02,16.90
2014,08,06,09,03,16.90
2014,08,06,09,04,16.90
2014,08,06,09,05,17.00
2014,08,06,09,06,17.10
2014,08,06,09,07,17.20
2014,08,06,09,08,17.20
2014,08,06,09,09,17.30
2014,08,06,09,10,17.30
2014,08,06,09,11,17.40
2014,08,06,09,12,17.40
2014,08,06,09,13,17.50
2014,08,06,09,14,17.50
2014,08,06,09,15,17.50
2014,08,06,09,16,17.60
2014,08,06,09,17,17.70
2014,08,06,09,18,17.70
2014,08,06,09,19,17.80
2014,08,06,09,20,17.90
2014,08,06,09,21,17.90
2014,08,06,09,22,17.90
2014,08,06,09,23,18.00
2014,08,06,09,24,18.00
2014,08,06,09,25,18.10
2014,08,06,09,26,18.10
2014,08,06,09,27,18.20
2014,08,06,09,28,18.20
2014,08,06,09,29,18.30
2014,08,06,09,30,18.30
2014,08,06,09,31,18.30
2014,08,06,09,32,18.40
2014,08,06,09,33,18.40
2014,08,06,09,34,18.40
2014,08,06,09,35,18.40
2014,08,06,09,36,18.40
2014,08,06,09,37,18.50
2014,08,06,09,38,18.50
2014,08,06,09,39,18.50
2014,08,06,09,40,18.60
2014,08,06,09,41,18.60
2014,08,06,09,42,18.70
2014,08,06,09,43,18.80
2014,08,06,09,44,18.80
2014,08,06,09,45,18.90
2014,08,06,09,46,18.90
2014,08,06,09,47,18.90
2014,08,06,09,48,18.90
2014,08,06,09,49,18.90
2014,08,06,09,50,18.90
2014,08,06,09,51,18.90
2014,08,06,09,52,19.00
2014,08,06,09,53,19.10
2014,08,06,09,54,19.20
2014,08,06,09,55,19.20
2014,08,06,09,56,19.20
2014,08,06,09,57,19.30
2014,08,06,09,58,19.30
2014,08,06,09,59,19.30
2014,08,06,10,00,19.40
2014,08,06,10,01,19.30
2014,08,06,10,02,19.30
2014,08,06,10,03,19.30
2014,08,06,10,04,19.30
2014,08,06,10,05,19.30
2014,08,06,10,06,19.40
2014,08,06,10,07,19.50
2014,08,06,10,08,19.60
2014,08,06,10,09,19.60
2014,08,06,10,10,19.70
2014,08,06,10,11,19.80
2014,08,06,10,12,19.90
2014,08,06,10,13,20.00
2014,08,06,10,14,20.00
2014,08,06,10,15,19.90
2014,08,06,10,16,19.90
2014,08,06,10,17,19.80
2014,08,06,10,18,19.90
2014,08,06,10,19,19.90
2014,08,06,10,20,19.90
2014,08,06,10,21,19.90
2014,08,06,10,22,20.00
2014,08,06,10,23,20.20
2014,08,06,10,24,20.20
2014,08,06,10,25,20.20
2014,08,06,10,26,20.30
2014,08,06,10,27,20.30
2014,08,06,10,28,20.30
2014,08,06,10,29,20.30
2014,08,06,10,30,20.30
2014,08,06,10,31,20.40
2014,08,06,10,32,20.40
2014,08,06,10,33,20.40
2014,08,06,10,34,20.40
2014,08,06,10,35,20.40
2014,08,06,10,36,20.40
2014,08,06,10,37,20.40
2014,08,06,10,38,20.40
2014,08,06,10,39,20.40
2014,08,06,10,40,20.40
2014,08,06,10,41,20.40
2014,08,06,10,42,20.40
2014,08,06,10,43,20.30
2014,08,06,10,44,20.30
2014,08,06,10,45,20.20
2014,08,06,10,46,20.30
2014,08,06,10,47,20.30
2014,08,06,10,48,20.30
2014,08,06,10,49,20.30
2014,08,06,10,50,20.40
2014,08,06,10,51,20.50
2014,08,06,10,52,20.50
2014,08,06,10,53,20.60
2014,08,06,10,54,20.70
2014,08,06,10,55,20.80
2014,08,06,10,56,20.80
2014,08,06,10,57,20.80
2014,08,06,10,58,20.80
2014,08,06,10,59,20.80
2014,08,06,11,00,20.80
2014,08,06,11,01,20.80
2014,08,06,11,02,20.80
2014,08,06,11,03,20.80
2014,08,06,11,04,20.80
2014,08,06,11,05,20.80
2014,08,06,11,06,20.90
2014,08,06,11,07,21.00
2014,08,06,11,08,21.10
2014,08,06,11,09,21.20
2014,08,06,11,10,21.20
2014,08,06,11,11,21.20
2014,08,06,11,12,21.30
2014,08,06,11,13,21.30
2014,08,06,11,14,21.40
2014,08,06,11,15,21.40
2014,08,06,11,16,21.40
2014,08,06,11,17,21.40
2014,08,06,11,18,21.40
2014,08,06,11,19,21.40
2014,08,06,11,20,21.30
2014,08,06,11,21,21.30
2014,08,06,11,22,21.30
2014,08,06,11,23,21.30
2014,08,06,11,24,21.30
2014,08,06,11,25,21.30
2014,08,06,11,26,21.40
2014,08,06,11,27,21.50
2014,08,06,11,28,21.60
2014,08,06,11,29,21.80
2014,08,06,11,30,21.90
2014,08,06,11,31,22.00
2014,08,06,11,32,22.10
2014,08,06,11,33,22.10
2014,08,06,11,34,22.10
2014,08,06,11,35,22.10
2014,08,06,11,36,22.10
2014,08,06,11,37,22.00
2014,08,06,11,38,21.90
2014,08,06,11,39,21.80
2014,08,06,11,40,21.80
2014,08,06,11,41,21.80
2014,08,06,11,42,21.80
2014,08,06,11,43,21.90
2014,08,06,11,44,21.90
2014,08,06,11,45,22.00
2014,08,06,11,46,22.10
2014,08,06,11,47,22.20
2014,08,06,11,48,22.20
2014,08,06,11,49,22.20
2014,08,06,11,50,22.20
2014,08,06,11,51,22.20
2014,08,06,11,52,22.20
2014,08,06,11,53,22.10
2014,08,06,11,54,22.10
2014,08,06,11,55,22.10
2014,08,06,11,56,22.00
2014,08,06,11,57,22.00
2014,08,06,11,58,22.00
2014,08,06,11,59,22.00
2014,08,06,12,00,21.90
2014,08,06,12,01,21.90
2014,08,06,12,02,21.80
2014,08,06,12,03,21.80
2014,08,06,12,04,21.90
2014,08,06,12,05,21.90
2014,08,06,12,06,22.00
2014,08,06,12,07,22.10
2014,08,06,12,08,22.20
2014,08,06,12,09,22.20
2014,08,06,12,10,22.30
2014,08,06,12,11,22.30
2014,08,06,12,12,22.30
2014,08,06,12,13,22.20
2014,08,06,12,14,22.10
2014,08,06,12,15,22.00
2014,08,06,12,16,22.00
2014,08,06,12,17,22.00
2014,08,06,12,18,22.00
2014,08,06,12,19,22.00
2014,08,06,12,20,22.00
2014,08,06,12,21,22.00
2014,08,06,12,22,21.90
2014,08,06,12,23,22.00
2014,08,06,12,24,22.10
2014,08,06,12,25,22.20
2014,08,06,12,26,22.30
2014,08,06,12,27,22.50
2014,08,06,12,28,22.60
2014,08,06,12,29,22.50
2014,08,06,12,30,22.50
2014,08,06,12,31,22.50
2014,08,06,12,32,22.60
2014,08,06,12,33,22.70
2014,08,06,12,34,22.80
2014,08,06,12,35,22.80
2014,08,06,12,36,22.80
2014,08,06,12,37,22.90
2014,08,06,12,38,22.90
2014,08,06,12,39,23.10
2014,08,06,12,40,23.10
2014,08,06,12,41,23.20
2014,08,06,12,42,23.40
2014,08,06,12,43,23.50
2014,08,06,12,44,23.50
2014,08,06,12,45,23.50
2014,08,06,12,46,23.50
2014,08,06,12,47,23.40
2014,08,06,12,48,23.30
2014,08,06,12,49,23.20
2014,08,06,12,50,23.20
2014,08,06,12,51,23.10
2014,08,06,12,52,23.10
2014,08,06,12,53,22.90
2014,08,06,12,54,22.80
2014,08,06,12,55,22.70
2014,08,06,12,56,22.60
2014,08,06,12,57,22.50
2014,08,06,12,58,22.40
2014,08,06,12,59,22.40
2014,08,06,13,00,22.40
2014,08,06,13,01,22.50
2014,08,06,13,02,22.60
2014,08,06,13,03,22.60
2014,08,06,13,04,22.60
2014,08,06,13,05,22.60
2014,08,06,13,06,22.70
2014,08,06,13,07,22.70
2014,08,06,13,08,22.70
2014,08,06,13,09,22.70
2014,08,06,13,10,22.70
2014,08,06,13,11,22.80
2014,08,06,13,12,22.80
2014,08,06,13,13,22.80
2014,08,06,13,14,22.90
2014,08,06,13,15,23.00
2014,08,06,13,16,23.10
2014,08,06,13,17,23.10
2014,08,06,13,18,23.20
2014,08,06,13,19,23.10
2014,08,06,13,20,23.10
2014,08,06,13,21,23.00
2014,08,06,13,22,22.90
2014,08,06,13,23,22.90
2014,08,06,13,24,22.90
2014,08,06,13,25,22.80
2014,08,06,13,26,22.90
2014,08,06,13,27,23.00
2014,08,06,13,28,23.10
2014,08,06,13,29,23.10
2014,08,06,13,30,23.00
2014,08,06,13,31,22.90
2014,08,06,13,32,22.80
2014,08,06,13,33,22.80
2014,08,06,13,34,22.90
2014,08,06,13,35,22.90
2014,08,06,13,36,23.00
2014,08,06,13,37,23.10
2014,08,06,13,38,23.10
2014,08,06,13,39,23.00
2014,08,06,13,40,22.90
2014,08,06,13,41,22.80
2014,08,06,13,42,22.70
2014,08,06,13,43,22.60
2014,08,06,13,44,22.60
2014,08,06,13,45,22.50
2014,08,06,13,46,22.40
2014,08,06,13,47,22.40
2014,08,06,13,48,22.50
2014,08,06,13,49,22.60
2014,08,06,13,50,22.60
2014,08,06,13,51,22.70
2014,08,06,13,52,22.70
2014,08,06,13,53,22.70
2014,08,06,13,54,22.70
2014,08,06,13,55,22.80
2014,08,06,13,56,22.80
2014,08,06,13,57,22.80
2014,08,06,13,58,22.80
2014,08,06,13,59,22.80
2014,08,06,14,00,22.80
2014,08,06,14,01,22.80
2014,08,06,14,02,22.70
2014,08,06,14,03,22.70
2014,08,06,14,04,22.60
2014,08,06,14,05,22.60
2014,08,06,14,06,22.60
2014,08,06,14,07,22.60
2014,08,06,14,08,22.60
2014,08,06,14,09,22.60
2014,08,06,14,10,22.60
2014,08,06,14,11,22.50
2014,08,06,14,12,22.50
2014,08,06,14,13,22.50
2014,08,06,14,14,22.60
2014,08,06,14,15,22.70
2014,08,06,14,16,22.80
2014,08,06,14,17,22.90
2014,08,06,14,18,23.00
2014,08,06,14,19,23.10
2014,08,06,14,20,23.20
2014,08,06,14,21,23.20
2014,08,06,14,22,23.20
2014,08,06,14,23,23.20
2014,08,06,14,24,23.30
2014,08,06,14,25,23.30
2014,08,06,14,26,23.30
2014,08,06,14,27,23.30
2014,08,06,14,28,23.20
2014,08,06,14,29,23.20
2014,08,06,14,30,23.10
2014,08,06,14,31,23.10
2014,08,06,14,32,23.10
2014,08,06,14,33,23.00
2014,08,06,14,34,23.10
2014,08,06,14,35,23.10
2014,08,06,14,36,23.10
2014,08,06,14,37,23.20
2014,08,06,14,38,23.30
2014,08,06,14,39,23.30
2014,08,06,14,40,23.30
2014,08,06,14,41,23.30
2014,08,06,14,42,23.30
2014,08,06,14,43,23.30
2014,08,06,14,44,23.30
2014,08,06,14,45,23.20
2014,08,06,14,46,23.10
2014,08,06,14,47,23.00
2014,08,06,14,48,22.90
2014,08,06,14,49,22.90
2014,08,06,14,50,22.80
2014,08,06,14,51,22.80
2014,08,06,14,52,22.80
2014,08,06,14,53,22.80
2014,08,06,14,54,22.90
2014,08,06,14,55,23.00
2014,08,06,14,56,23.00
2014,08,06,14,57,23.10
2014,08,06,14,58,23.10
2014,08,06,14,59,23.10
2014,08,06,15,00,23.10
2014,08,06,15,01,23.10
2014,08,06,15,02,23.10
2014,08,06,15,03,23.10
2014,08,06,15,04,23.10
2014,08,06,15,05,23.00
2014,08,06,15,06,23.10
2014,08,06,15,07,23.10
2014,08,06,15,08,23.10
2014,08,06,15,09,23.10
2014,08,06,15,10,23.20
2014,08,06,15,11,23.20
2014,08,06,15,12,23.10
2014,08,06,15,13,23.10
2014,08,06,15,14,23.20
2014,08,06,15,15,23.20
2014,08,06,15,16,23.30
2014,08,06,15,17,23.50
2014,08,06,15,18,23.60
2014,08,06,15,19,23.80
2014,08,06,15,20,23.90
2014,08,06,15,21,23.90
2014,08,06,15,22,23.80
2014,08,06,15,23,23.80
2014,08,06,15,24,23.80
2014,08,06,15,25,23.70
2014,08,06,15,26,23.60
2014,08,06,15,27,23.50
2014,08,06,15,28,23.40
2014,08,06,15,29,23.40
2014,08,06,15,30,23.30
2014,08,06,15,31,23.20
2014,08,06,15,32,23.10
2014,08,06,15,33,23.00
2014,08,06,15,34,23.00
2014,08,06,15,35,22.90
2014,08,06,15,36,22.90
2014,08,06,15,37,22.90
2014,08,06,15,38,22.80
2014,08,06,15,39,22.80
2014,08,06,15,40,22.90
2014,08,06,15,41,23.00
2014,08,06,15,42,23.10
2014,08,06,15,43,23.10
2014,08,06,15,44,23.10
2014,08,06,15,45,23.10
2014,08,06,15,46,23.10
2014,08,06,15,47,23.10
2014,08,06,15,48,23.10
2014,08,06,15,49,23.10
2014,08,06,15,50,23.10
2014,08,06,15,51,23.00
2014,08,06,15,52,23.00
2014,08,06,15,53,23.00
2014,08,06,15,54,23.00
2014,08,06,15,55,22.90
2014,08,06,15,56,22.90
2014,08,06,15,57,22.90
2014,08,06,15,58,22.90
2014,08,06,15,59,22.80
2014,08,06,16,00,22.90
2014,08,06,16,01,22.90
2014,08,06,16,02,22.90
2014,08,06,16,03,22.90
2014,08,06,16,04,23.00
2014,08,06,16,05,23.10
2014,08,06,16,06,23.10
2014,08,06,16,07,23.10
2014,08,06,16,08,23.20
2014,08,06,16,09,23.20
2014,08,06,16,10,23.30
2014,08,06,16,11,23.30
2014,08,06,16,12,23.40
2014,08,06,16,13,23.40
2014,08,06,16,14,23.50
2014,08,06,16,15,23.60
2014,08,06,16,16,23.70
2014,08,06,16,17,23.80
2014,08,06,16,18,23.90
2014,08,06,16,19,24.00
2014,08,06,16,20,24.10
2014,08,06,16,21,24.20
2014,08,06,16,22,24.30
2014,08,06,16,23,24.20
2014,08,06,16,24,24.10
2014,08,06,16,25,24.10
2014,08,06,16,26,24.00
2014,08,06,16,27,24.00
2014,08,06,16,28,23.90
2014,08,06,16,29,23.90
2014,08,06,16,30,23.90
2014,08,06,16,31,23.90
2014,08,06,16,32,24.00
2014,08,06,16,33,24.00
2014,08,06,16,34,23.90
2014,08,06,16,35,23.90
2014,08,06,16,36,24.00
2014,08,06,16,37,24.10
2014,08,06,16,38,24.10
2014,08,06,16,39,24.00
2014,08,06,16,40,24.00
2014,08,06,16,41,23.90
2014,08,06,16,42,23.90
2014,08,06,16,43,23.90
2014,08,06,16,44,23.80
2014,08,06,16,45,23.80
2014,08,06,16,46,23.80
2014,08,06,16,47,23.80
2014,08,06,16,48,23.80
2014,08,06,16,49,23.80
2014,08,06,16,50,23.80
2014,08,06,16,51,23.70
2014,08,06,16,52,23.70
2014,08,06,16,53,23.60
2014,08,06,16,54,23.60
2014,08,06,16,55,23.60
2014,08,06,16,56,23.60
2014,08,06,16,57,23.70
2014,08,06,16,58,23.70
2014,08,06,16,59,23.70
2014,08,06,17,00,23.80
2014,08,06,17,01,23.90
2014,08,06,17,02,23.90
2014,08,06,17,03,24.00
2014,08,06,17,04,24.10
2014,08,06,17,05,24.10
2014,08,06,17,06,24.10
2014,08,06,17,07,24.00
2014,08,06,17,08,24.00
2014,08,06,17,09,23.90
2014,08,06,17,10,23.80
2014,08,06,17,11,23.80
2014,08,06,17,12,23.80
2014,08,06,17,13,23.80
2014,08,06,17,14,23.80
2014,08,06,17,15,23.70
2014,08,06,17,16,23.70
2014,08,06,17,17,23.70
2014,08,06,17,18,23.70
2014,08,06,17,19,23.70